Hill City, KS

9:25 AM CDT on April 30, 2017 (GMT -0500)
Hill City Municipal

Weather History for KHLC - September, 2013

Change the Weather History Date:

Thursday, September 12, 2013

  Actual Average Record
Temperature  
Mean Temperature 71 °F 69 °F  
Max Temperature 73 °F 83 °F 108 °F (1956)
Min Temperature 68 °F 55 °F 37 °F (1974)
Cooling Degree Days 4    
Growing Degree Days 19 (Base 50)    
Moisture  
Dew Point 67 °F    
Average Humidity 93    
Maximum Humidity 100    
Minimum Humidity 83    
Precipitation  
Precipitation 0.35 in 0.06 in 0.70 in (2012)
Month to date precipitation 0.84 0.85  
Year to date precipitation 13.78 18.73  
Sea Level Pressure  
Sea Level Pressure 30.19 in    
Wind  
Wind Speed 3 mph (East)    
Max Wind Speed 12 mph    
Max Gust Speed 16 mph    
Visibility 8 miles    
Events Rain    
T = Trace of Precipitation, MM = Missing Value Source: NWS Daily Summary

Daily Weather History Graph

Daily Weather History Graph

Search for Another Location

Airport or City:

Trip Planner

Search our weather history database for the weather conditions in past years. The results will help you decide how hot, cold, wet, or windy it might be!

Date:

Astronomy

Sep. 12, 2013 Rise Set
Actual Time 7:18 AM CDT 7:52 PM CDT
Civil Twilight 6:51 AM CDT 8:19 PM CDT
Nautical Twilight 6:19 AM CDT 8:50 PM CDT
Astronomical Twilight 5:46 AM CDT 9:23 PM CDT
Moon 2:45 PM CDT (9/12) No Moon Set
Length of Visible Light 13h 28m
Length of Day
12h 34m
Waxing Crescent, 50% of the Moon is Illuminated
Sep 12
Waxing Crescent
Sep 12
First Quarter
Sep 19
Full
Sep 26
Last Quarter
Oct 4
New

Hourly Weather History & Observations

Time (CDT) Temp. Dew Point Humidity Pressure Visibility Wind Dir Wind Speed Gust Speed Precip Events Conditions
12:19 AM 66.2 °F 66.2 °F 100% 30.19 in 10.0 mi SSW 4.6 mph - N/A   Overcast
12:31 AM 68.0 °F 66.2 °F 94% 30.19 in 10.0 mi Calm Calm - N/A   Overcast
12:53 AM 68.0 °F 66.9 °F 96% 30.12 in 10.0 mi Calm Calm - N/A   Overcast
1:53 AM 68.0 °F 66.9 °F 96% 30.12 in 10.0 mi Calm Calm - 0.03 in Rain Light Rain
2:53 AM 68.0 °F 66.9 °F 96% 30.13 in 10.0 mi Calm Calm - 0.00 in   Overcast
3:11 AM 68.0 °F 66.2 °F 94% 30.19 in 10.0 mi Calm Calm - N/A   Overcast
3:19 AM 68.0 °F 66.2 °F 94% 30.19 in 10.0 mi Calm Calm - 0.00 in Rain Light Rain
3:53 AM 68.0 °F 66.9 °F 96% 30.13 in 10.0 mi ENE 3.5 mph - 0.00 in Rain Light Rain
4:35 AM 68.0 °F 66.2 °F 94% 30.19 in 10.0 mi Calm Calm - 0.01 in   Overcast
4:53 AM 68.0 °F 66.9 °F 96% 30.12 in 9.0 mi East 3.5 mph - 0.01 in   Overcast
5:18 AM 68.0 °F 66.2 °F 94% 30.19 in 8.0 mi ENE 3.5 mph - N/A   Overcast
5:53 AM 68.0 °F 66.9 °F 96% 30.14 in 7.0 mi Calm Calm - N/A   Overcast
6:53 AM 68.0 °F 66.9 °F 96% 30.15 in 7.0 mi Calm Calm - 0.00 in Rain Light Rain
7:53 AM 68.0 °F 66.9 °F 96% 30.16 in 5.0 mi Calm Calm - 0.01 in Rain Light Rain
8:09 AM 68.0 °F 66.2 °F 94% 30.21 in 3.0 mi Calm Calm - 0.02 in Rain Light Rain
8:24 AM 68.0 °F 66.2 °F 94% 30.21 in 4.0 mi Calm Calm - 0.03 in Rain Light Rain
8:32 AM 68.0 °F 66.2 °F 94% 30.21 in 2.5 mi NE 3.5 mph - 0.05 in Rain Rain
8:53 AM 68.0 °F 66.9 °F 96% 30.18 in 3.0 mi ENE 3.5 mph - 0.08 in Rain Light Rain
9:07 AM 68.0 °F 66.2 °F 94% 30.22 in 2.5 mi ENE 3.5 mph - 0.03 in Rain Rain
9:23 AM 68.0 °F 66.2 °F 94% 30.22 in 2.0 mi Calm Calm - 0.08 in Rain Rain
9:32 AM 68.0 °F 66.2 °F 94% 30.23 in 2.5 mi Calm Calm - 0.10 in Rain Rain
9:44 AM 68.0 °F 68.0 °F 100% 30.23 in 3.0 mi NNE 3.5 mph - 0.13 in Rain Rain
9:53 AM 68.0 °F 66.9 °F 96% 30.19 in 2.5 mi NNE 3.5 mph - 0.15 in Rain Rain
9:57 AM 68.0 °F 66.2 °F 94% 30.23 in 3.0 mi NE 5.8 mph - 0.01 in Rain Rain
10:31 AM 69.8 °F 68.0 °F 94% 30.24 in 8.0 mi NE 5.8 mph - 0.03 in Rain Light Rain
10:53 AM 69.1 °F 68.0 °F 96% 30.21 in 8.0 mi NE 5.8 mph - 0.03 in Rain Light Rain
11:00 AM 69.8 °F 68.0 °F 94% 30.25 in 6.0 mi NE 4.6 mph - 0.00 in   Overcast
11:07 AM 69.8 °F 68.0 °F 94% 30.25 in 4.0 mi NE 6.9 mph - 0.00 in Rain Light Rain
11:28 AM 69.8 °F 69.8 °F 100% 30.25 in 3.0 mi East 4.6 mph - 0.01 in Rain Light Rain
11:37 AM 69.8 °F 68.0 °F 94% 30.25 in 6.0 mi East 6.9 mph - 0.01 in   Overcast
11:53 AM 70.0 °F 68.0 °F 93% 30.20 in 10.0 mi ENE 4.6 mph - 0.01 in   Overcast
12:05 PM 71.6 °F 68.0 °F 88% 30.25 in 10.0 mi East 6.9 mph - N/A   Overcast
12:22 PM 71.6 °F 68.0 °F 88% 30.25 in 10.0 mi East 5.8 mph - N/A   Overcast
12:43 PM 71.6 °F 68.0 °F 88% 30.24 in 10.0 mi East 6.9 mph - N/A   Overcast
12:53 PM 70.0 °F 68.0 °F 93% 30.19 in 9.0 mi East 11.5 mph 16.1 mph N/A   Overcast
1:03 PM 69.8 °F 66.2 °F 88% 30.24 in 9.0 mi East 8.1 mph - N/A   Overcast
1:53 PM 72.0 °F 66.9 °F 84% 30.19 in 10.0 mi East 9.2 mph - N/A   Overcast
2:53 PM 72.0 °F 66.9 °F 84% 30.17 in 10.0 mi ESE 8.1 mph - N/A   Overcast
3:27 PM 71.6 °F 68.0 °F 88% 30.21 in 10.0 mi SSE 5.8 mph - N/A   Overcast
3:36 PM 69.8 °F 68.0 °F 94% 30.21 in 5.0 mi SE 6.9 mph - 0.01 in Rain Light Rain
3:53 PM 71.1 °F 69.1 °F 93% 30.16 in 9.0 mi South 4.6 mph - 0.01 in Rain Light Rain
4:03 PM 71.6 °F 69.8 °F 94% 30.21 in 4.0 mi South 4.6 mph - 0.00 in Rain Light Rain
4:28 PM 69.8 °F 68.0 °F 94% 30.20 in 6.0 mi South 6.9 mph - 0.01 in Rain Light Rain
4:53 PM 71.1 °F 69.1 °F 93% 30.14 in 10.0 mi SE 5.8 mph - 0.01 in Rain Light Rain
5:01 PM 71.6 °F 69.8 °F 94% 30.19 in 10.0 mi ESE 5.8 mph - 0.00 in Rain Light Rain
5:08 PM 71.6 °F 68.0 °F 88% 30.19 in 10.0 mi SE 5.8 mph - 0.00 in Rain Light Rain
5:27 PM 71.6 °F 66.2 °F 83% 30.19 in 10.0 mi SE 5.8 mph - 0.00 in   Overcast
5:41 PM 71.6 °F 68.0 °F 88% 30.20 in 10.0 mi SE 3.5 mph - 0.00 in   Overcast
5:47 PM 71.6 °F 68.0 °F 88% 30.20 in 10.0 mi SSE 4.6 mph - 0.00 in   Overcast
5:48 PM 71.1 °F 68.0 °F 90% 30.15 in 10.0 mi SSE 5.8 mph - 0.00 in   Overcast
6:21 PM 71.6 °F 68.0 °F 88% 30.19 in 10.0 mi Calm Calm - N/A   Mostly Cloudy
6:53 PM 70.0 °F 68.0 °F 93% 30.14 in 10.0 mi Calm Calm - N/A   Scattered Clouds
7:53 PM 70.0 °F 68.0 °F 93% 30.14 in 10.0 mi Calm Calm - N/A   Clear
8:53 PM 69.1 °F 68.0 °F 96% 30.14 in 10.0 mi Calm Calm - N/A   Clear
9:53 PM 68.0 °F 68.0 °F 100% 30.16 in 10.0 mi Calm Calm - N/A   Clear
10:53 PM 69.1 °F 68.0 °F 96% 30.17 in 10.0 mi Calm Calm - 0.00 in Rain Light Rain
11:53 PM 69.1 °F 68.0 °F 96% 30.16 in 10.0 mi Calm Calm - 0.00 in   Overcast